Regional Weather Roundup
Issued by NWS

Home | Current Version | Previous Version | Graphics & Text | Print | Product List | Glossary On
Versions: 1 2 3 4 5 6 7 8 9 10 11 12 13 14 15 16 17 18 19 20 21 22 23 24 25 26 27 28
000
ASUS45 KCYS 282110
RWRWY

WYOMING REGIONAL WEATHER ROUNDUP
NATIONAL WEATHER SERVICE CHEYENNE WY
300 PM MDT FRI APR 28 2017

NOTE:  "FAIR" INDICATES FEW OR NO CLOUDS BELOW 12,000 FEET
WITH NO SIGNIFICANT WEATHER AND/OR OBSTRUCTIONS TO VISIBILITY.

WYZ001-282200-
YELLOWSTONE NATIONAL PARK

CITY           SKY/WX    TMP DP  RH WIND       PRES   REMARKS
LK YELLOWSTONE   N/A     34  21  59 VRB5      29.94R WCI  30
W YELLOWSTONE  NOT AVBL

$$
WYZ002>013-054>058-071-098>099-282200-
NORTHERN WYOMING

CITY           SKY/WX    TMP DP  RH WIND       PRES   REMARKS
JACKSON        PTSUNNY   39  28  65 N14G25    29.87R WCI  31
CODY           CLOUDY    37  30  75 N16G23    30.01R WCI  28
GREYBULL       CLOUDY    47  22  37 NW16      29.94R
WORLAND        CLOUDY    41  33  73 SW7       29.96R
SHERIDAN       LGT SNOW  34  33  96 S6        30.06R FOG     WCI  29
BUFFALO        LGT SNOW  35  30  82 NW10      30.05R WCI  27
GILLETTE       CLOUDY    38  29  70 NE8       30.02R WCI  32
HULETT         CLOUDY    43  27  52 E13G18    30.03R
NEWCASTLE      MOCLDY    41  23  48 NE8G16    29.99R

$$
WYZ014>020-022>026-101>103-282200-
CENTRAL WYOMING

CITY           SKY/WX    TMP DP  RH WIND       PRES   REMARKS
BIG PINEY      PTSUNNY   35  27  72 S18G30    29.84R WCI  24
PINEDALE       FAIR      37  16  41 NE21G28   29.84R WCI  27
DUBOIS         CLOUDY    34  27  75 SE14G20   29.87R WCI  24
LANDER         LGT SNOW  33  31  92 N15G23    29.93R FOG     WCI  23
RIVERTON       LGT SNOW  32  31  96 NE16      29.94R VSB 3/4 WCI  21
CASPER         CLOUDY    33  28  81 E25       29.92R WCI  20
DOUGLAS        LGT SNOW  32  29  88 E16       29.96R VSB 3/4 WCI  21

$$
WYZ021-027>030-104>119-282200-
SOUTHERN WYOMING

CITY           SKY/WX    TMP DP  RH WIND       PRES   REMARKS
EVANSTON       LGT SNOW  32  29  88 NW16      29.84S VSB 1   WCI  21
KEMMERER       LGT SNOW  32  28  86 N16       29.84R WCI  21
FORT BRIDGER   CLOUDY    37  33  87 NW13G22   29.85R WCI  28
ROCK SPRINGS   CLOUDY    34  27  75 NE20      29.84R WCI  23
DIXON            N/A     37  29  72 W3        29.82R
RAWLINS        FLURRIES  34  28  79 N10       29.80R WCI  26
SARATOGA       LGT SNOW  36  32  87 NW10G17   29.79R WCI  28
LARAMIE        CLOUDY    34  24  67 NE25G32   29.76R WCI  21
CHEYENNE       FLURRIES  32  27  81 NE17G30   29.80R WCI  21
TORRINGTON     LGT SNOW  33  31  92 E17       29.91R VSB 1   WCI  22
PINE BLUFFS    CLOUDY    32  32 100 E20       29.83R WCI  20

$$




USA.gov is the U.S. government's official web portal to all federal, state and local government web resources and services.